Home   Weather   Schwerin   Past weeks

Flag for Germany Past Weather in Schwerin, Mecklenburg-Western Pomerania, Germany — Yesterday and Last 2 Weeks

Now
63 °F

Passing clouds.


Feels Like: 63 °F
Forecast: 58 / 70 °F
Wind: 10 mph from West

Location: Laage

Current Time: Sep 29, 2016 at 1:58:02 AM

Latest Report: Sep 29, 2016 at 1:20 AM


Visibility: N/A

Pressure: 30.04 "Hg

Humidity: 73%

Dew Point: 54 °F

Location of SchwerinLocation

Past Weather in Schwerin — Graph

°F

Schwerin Temperature Yesterday

Maximum temperature yesterday: 70 °F (at 2:20 PM)
Minimum temperature yesterday: 55 °F (at 2:20 AM)
Average temperature yesterday: 62 °F

High & Low Weather Summary for the Past Weeks

 TemperatureHumidityPressure
High82 °F (Sep 14, 3:20 PM)100% (Sep 24, 8:20 AM)30.27 "Hg (Sep 24, 8:20 AM)
Low46 °F (Sep 22, 4:20 AM)40% (Sep 18, 2:20 PM)29.86 "Hg (Sep 16, 4:20 PM)
Average60 °F73%30.11 "Hg
* Reported Sep 14 12:20 AM — Sep 29 12:20 AM, Schwerin, Weather by CustomWeather, © 2016

Note: Actual official high and low records may vary slightly from our data, if they occured in-between our weather recording intervals... More about our weather records

Advertising

Schwerin Weather History for the Previous 24 Hours

Scroll right to see more
 ConditionsComfort  
Time TempWeatherWind HumidityBarometerVisibility
12:20 AM
Thu, Sep 29
63 °FPassing clouds.10 mph73%30.04 "HgN/A
11:20 PM
Wed, Sep 28
63 °FPassing clouds.9 mph73%30.04 "HgN/A
10:20 PM63 °FPassing clouds.13 mph73%30.04 "HgN/A
9:20 PM63 °FPassing clouds.16 mph68%30.04 "HgN/A
8:20 PM64 °FPassing clouds.17 mph60%30.04 "HgN/A
7:20 PM64 °FPassing clouds.18 mph60%30.04 "HgN/A
6:20 PM66 °FPartly sunny.18 mph60%30.04 "HgN/A
5:20 PM66 °FPartly sunny.18 mph64%30.01 "HgN/A
4:20 PM68 °FPartly sunny.21 mph46%30.01 "HgN/A
3:20 PM68 °FPartly sunny.18 mph56%30.01 "HgN/A
2:20 PM70 °FBroken clouds.23 mph53%30.01 "HgN/A
1:20 PM68 °FPartly sunny.16 mph60%30.01 "HgN/A
12:20 PM64 °FPartly sunny.17 mph68%30.01 "HgN/A
11:20 AM63 °FBroken clouds.14 mph73%30.04 "HgN/A
11:03 AM63 °FPartly sunny.14 mph73%30.04 "HgN/A
10:48 AM63 °FBroken clouds.14 mph68%30.04 "HgN/A
10:20 AM63 °FPartly sunny.14 mph68%30.04 "HgN/A
9:20 AM61 °FPartly sunny.13 mph68%30.04 "HgN/A
8:20 AM61 °FPartly sunny.14 mph68%30.04 "HgN/A
7:20 AM59 °FPartly sunny.13 mph68%30.04 "HgN/A
6:20 AM59 °FPassing clouds.9 mph72%30.09 "HgN/A
5:53 AM57 °FPassing clouds.8 mph77%30.09 "HgN/A
5:20 AM57 °FPassing clouds.7 mph82%30.12 "HgN/A
4:20 AM55 °FPartly cloudy.5 mph88%30.15 "HgN/A
3:20 AM55 °FPassing clouds.3 mph88%30.15 "HgN/A
2:20 AM55 °FPassing clouds.5 mph88%30.18 "HgN/A
1:20 AM57 °FPassing clouds.6 mph82%30.18 "HgN/A
Weather by CustomWeather, © 2016

See weather overviewHow to use our weather pages